FW6260 Weather Reports


time (UTC)temp
F
wind
direction
speed
knots
gust
knots
rain 1hr
in
rain 24hr
in
rain mn
in
humidity
%
barometer
mb
20260906140107 75 145 0.0 2.6 0.00 0.00 0.00 41
20260906133037 74 164 0.9 1.7 0.00 0.00 0.00 44
20260906130108 73 148 0.9 5.2 0.00 0.00 0.00 49
20260906123037 71 157 0.9 2.6 0.00 0.00 0.00 51
20260906120108 71 138 0.9 5.2 0.00 0.00 0.00 55
20260906113058 69 169 0.9 2.6 0.00 0.00 0.00 57
20260906110109 69 126 0.9 2.6 0.00 0.00 0.00 58
20260906103039 69 157 0.9 3.5 0.00 0.00 0.00 60
20260906100110 68 205 0.9 3.5 0.00 0.00 0.00 61
20260906093040 66 133 0.0 2.6 0.00 0.00 0.00 62
20260906090111 66 158 0.9 2.6 0.00 0.00 0.00 63
20260906083040 64 137 0.0 1.7 0.00 0.00 0.00 66
20260906080112 63 126 0.9 1.7 0.00 0.00 0.00 71
20260906073101 59 157 0.0 1.7 0.00 0.00 0.00 76
20260906070113 56 146 0.0 0.9 0.00 0.00 0.00 82
20260906063042 52 122 0.0 1.7 0.00 0.00 0.00 89
20260906060114 49 128 0.0 1.7 0.00 0.00 0.00 96
20260906053104 46 140 0.0 1.7 0.00 0.00 0.00 98
20260906050135 46 143 0.0 1.7 0.00 0.00 0.00 98
20260906043044 46 130 0.0 0.9 0.00 0.00 0.00 98
20260906040118 46 0.0 0.9 0.00 0.03 0.00 98
20260906033046 46 0.0 0.0 0.00 0.08 0.00 97
20260906030037 47 0.0 0.0 0.00 0.18 0.00 97
20260906023047 47 0.0 0.0 0.00 0.18 0.00 96
20260906020018 48 0.0 0.0 0.00 0.20 0.00 96
20260906013048 49 140 0.0 0.9 0.00 0.20 0.00 95
20260906010019 50 132 0.0 0.9 0.00 0.20 0.00 94
20260906003049 50 143 0.0 1.7 0.00 0.20 0.00 94
20260906000020 50 0.0 0.9 0.00 0.20 0.00 93
20260905233050 51 0.0 0.9 0.00 0.20 0.00 92
20260905230021 52 139 0.0 0.9 0.00 0.20 0.00 91
20260905223051 53 137 0.0 1.7 0.00 0.20 0.00 88
20260905220021 53 125 0.0 0.9 0.00 0.20 0.00 88
20260905213051 54 0.0 0.9 0.00 0.20 0.20 87
20260905210022 55 0.0 0.9 0.00 0.20 0.20 86
20260905203052 56 154 0.0 0.9 0.00 0.20 0.20 82
20260905200024 58 123 0.0 0.9 0.00 0.20 0.20 79
20260905193053 59 161 0.0 1.7 0.00 0.20 0.20 75
20260905190023 60 107 0.0 0.9 0.00 0.20 0.20 75
20260905183054 62 0.0 0.9 0.00 0.20 0.20 69
20260905180025 66 141 0.0 1.7 0.00 0.20 0.20 61
20260905173055 69 175 0.9 5.2 0.00 0.20 0.20 53
20260905170025 71 227 1.7 7.0 0.00 0.20 0.20 51
20260905163116 72 251 2.6 8.7 0.00 0.20 0.20 49
20260905160046 73 264 2.6 9.6 0.00 0.20 0.20 50
20260905153056 74 234 2.6 9.6 0.00 0.20 0.20 48
20260905150047 74 248 2.6 11.3 0.00 0.20 0.20 49
20260905143058 73 256 3.5 13.9 0.00 0.20 0.20 49